Regional Weather Roundup
Issued by NWS

Home | Current Version | Previous Version | Graphics & Text | Print | Product List | Glossary On
Versions: 1 2 3 4 5 6 7 8 9 10 11 12 13 14 15 16 17 18 19 20 21 22 23 24 25 26 27 28 29 30 31 32 33 34 35 36 37 38 39 40 41 42 43 44 45 46 47 48 49 50
277
ASUS43 KLMK 261002
RWRKY
KENTUCKY REGIONAL WEATHER ROUNDUP
NATIONAL WEATHER SERVICE LOUISVILLE KY
600 AM EDT TUE SEP 26 2017

NOTE "FAIR" INDICATES FEW OR NO CLOUDS BELOW 12,000 FEET
WITH NO SIGNIFICANT WEATHER AND/OR OBSTRUCTIONS TO VISIBILITY.

KYZ001>023-026-027-061>063-070>075-261100-
WESTERN AND SOUTH CENTRAL KENTUCKY

CITY           SKY/WX    TMP DP  RH WIND       PRES   REMARKS
PADUCAH        CLEAR     65  62  90 CALM      29.96S
HENDERSON      CLEAR     65  64  97 CALM      29.98R FOG
OWENSBORO      PTCLDY    67  66  97 CALM      29.98S FOG
HOPKINSVILLE   CLEAR     67  66  99 CALM      29.97S
BOWLING GREEN  PTCLDY    64  64 100 CALM      29.99R
GLASGOW        NOT AVBL
$$

KYZ024-025-028>034-038-045-046-053-261100-
NORTH CENTRAL KENTUCKY

CITY           SKY/WX    TMP DP  RH WIND       PRES   REMARKS
LOUISVILLE/SDF CLEAR     70  66  87 CALM      29.99S
LOUISVILLE/LOU CLEAR     66  66 100 CALM      30.00S
FORT KNOX      CLEAR     64  64 100 CALM      29.98S
$$

KYZ035>037-039>044-047>052-055>060-089>105-261100-
NORTHEAST KENTUCKY

CITY           SKY/WX    TMP DP  RH WIND       PRES   REMARKS
LEXINGTON      CLEAR     64  61  90 NE3       30.02S
COVINGTON      CLEAR     65  65 100 CALM      30.02R
FRANKFORT      CLEAR     62  58  86 CALM      30.00S
$$

KYZ054-064>069-076>088-106>120-261100-
SOUTHEAST KENTUCKY

CITY           SKY/WX    TMP DP  RH WIND       PRES   REMARKS
JACKSON        CLEAR     65  63  93 CALM      30.02S
LONDON         CLEAR     60  58  92 CALM      30.02R
SOMERSET       NOT AVBL
MIDDLESBORO    FOG       60  60 100 CALM      30.04S VSB 1/4
MONTICELLO     MOSUNNY   55  55 100 VRB6      30.03S FOG
$$





USA.gov is the U.S. government's official web portal to all federal, state and local government web resources and services.